www.pogodaiklimat.ru

Погода и климат >> Архив погоды >> Россия >> Чукотка >> Билибино


ПОГОДА в Билибино

  • Прогноз погоды в Билибино
  • Монитор погоды в Билибино

АРХИВ ПОГОДЫ в Билибино

Время (UTC), дата Ветер
(напр.,м/с)
 
Видим.   Явления Облачность Т
(С)
Тd
(С)
f
(%)
Тe
(С)
Тes
(С)
Комфортность P
(гПа)
Po
(гПа)
Тmin
(С)
Tmax
(С)
R
(мм)
R24
(мм)
S
(см)
18 12.05 СВ 7-11
{11}
50 км 10/0
[As op]
+0.3 -3.0 78 -7 -6 997.5 963.4
21 12.05 СВ 8-12
{14}
50 км 10/8 600 м
[Cb cap Cs]
+0.6 -5.1 66 -6 -6 998.0 963.9 -0.3 <0.5
00 13.05 СВ 7-13
{15}
50 км 9/8 600 м
[Cb cap Ci ing]
+0.9 -5.9 60 -5 -5 999.8 965.6
03 13.05 СВ 9-16
{16}
50 км 9/8 600 м
[Cb cap Ac trans]
-0.5 -6.6 63 -8 -8 1002.9 968.5
06 13.05 СВ 7-11
{16}
50 км 10/10 600 м
[Sc]
-2.3 -8.7 61 -10 -10 1006.8 972.0
09 13.05 СВ 6
{12}
50 км 8/8 600 м
[Sc]
-3.0 -8.8 64 -10 -10 1009.4 974.4 +1.4
12 13.05 СВ 6
{11}
50 км 9/9 600 м
[Sc]
-5.8 -10.6 69 -13 -13 1011.8 976.4
15 13.05 СВ 5
{10}
50 км 10/10 600 м
[Sc]
-6.6 -11.2 70 -14 -14 1013.5 978.0
21 13.05 С 5
{9}
50 км 10/10 1000 м
[Sc]
-6.3 -12.7 60 -13 -13 1016.4 980.8 -7.5 <0.5
00 14.05 В 2
{6}
50 км 8/8 1000 м
[Cu Sc]
-4.1 -11.4 57 -8 -6 1016.8 981.4
03 14.05 ЮВ 2
{5}
50 км 8/8 1000 м
[Cu Sc]
-2.0 -10.0 54 -5 -4 1016.7 981.6
06 14.05 В 3
{7}
50 км 4/4 1000 м
[Cu Sc]
-2.4 -9.7 57 -7 -5 1017.5 982.4
09 14.05 С 3
{7}
50 км 8/8 1000 м
[Cu med, cong]
-5.7 -11.4 64 -11 -11 1019.1 983.5 -1.6
12 14.05 СВ 4
{6}
50 км 9/9 1000 м
[Cu med, cong]
-7.8 -12.3 70 -14 -14 1020.6 984.6
15 14.05 СВ 4
{6}
50 км 9/9 1000 м
[Cu med, cong]
-9.3 -12.8 76 -16 -16 1021.8 985.5
18 14.05 СВ 2
{6}
50 км 1/1 1000 м
[Cu hum]
-8.2 -12.4 72 -13 -11 1022.3 986.2
21 14.05 СВ 2
{6}
50 км 4/4 600 м
[Cu med, cong]
-4.7 -11.4 59 -8 -5 1022.3 986.7 -9.4 0
00 15.05 З 1
{4}
50 км 8/8 600 м
[Cu med, cong]
-1.9 -9.4 56 -3 -1 1021.8 986.5
03 15.05 Ю 2
{5}
50 км 9/9 600 м
[Sc]
-0.7 -9.7 51 -4 -3 1021.4 986.3
06 15.05 Ю 1
{5}
50 км 9/9 1000 м
[Cb cap]
-0.2 -9.8 48 -1 -1 1021.2 986.1
09 15.05 СВ 2
{4}
20 км слаб. ливневой снег 10/10 600 м
[Cb cap]
-2.4 -8.0 65 -6 -6 1022.0 986.7 -0.2 0.0
12 15.05 СВ 3
{4}
10 км слаб. ливневой снег 10/10 600 м
[Cb cap]
-4.7 -8.7 74 -10 -10 1022.4 986.8
15 15.05 СВ 2
{4}
50 км {ливн. осадки} 10/4 600 м
[Sc Ac und]
-5.5 -9.3 75 -10 -10 1022.3 986.6
18 15.05 СВ 2
{4}
50 км {ливн. осадки} 10/6 1000 м
[Sc Ac und]
-4.9 -9.4 71 -9 -9 1022.1 986.4
21 15.05 СВ 1
{4}
50 км {ливн. осадки} 9/9 600 м
[Cb cap]
-2.4 -8.0 65 -4 -4 1021.2 985.9 -5.6 0.0 0
00 16.05 Ю 2
{4}
50 км {ливн. осадки} 9/9 600 м
[Cb cap]
-0.1 -9.2 50 -3 -2 1020.1 985.1
03 16.05 В 3
{5}
50 км 9/9 600 м
[Cb cap]
-1.7 -9.2 57 -6 -5 1018.7 984.0
06 16.05 ЮВ 3
{5}
50 км 4/4 600 м
[Cu hum]
+2.1 -8.0 47 -1 +1 1018.0 983.3
09 16.05 СВ 3
{5}
50 км 8/1 600 м
[Cb cap Ac cuf Cc]
+0.6 -8.2 52 -3 -3 1017.7 982.9 +2.3
12 16.05 С 1
{4}
50 км 3/0
[Ac lent Ci fib]
-4.8 -8.8 74 -7 -7 1017.9 982.4
15 16.05 СВ 2
{4}
50 км 10/0
[Cs]
-5.4 -9.6 72 -9 -9 1017.0 981.5
18 16.05 СВ 4
{6}
50 км 10/0
[As trans]
-4.5 -9.7 67 -11 -10 1015.6 980.2
21 16.05 СВ 2
{6}
4000 м слаб. снег 10/0
[As op]
-2.1 -5.3 79 -6 -5 1013.7 978.7 -6.8 0.0 0
00 17.05 СВ 2
{3}
50 км {снег} 10/3 600 м
[Sc Ac As]
+2.0 -3.0 69 -1 +1 1011.3 976.9
03 17.05 В 3
{6}
50 км 10/0
[Ac und]
+3.8 -2.5 63 0 +3 1009.7 975.6
06 17.05 СВ 1
{9}
10 км слаб. дождь 10/8 600 м
[Sc As op]
+2.1 +0.2 87 0 +1 1009.8 975.5
09 17.05 ЮВ 1
{5}
10 км слаб. снег {дождь} 10/8 600 м
[Sc As op]
+1.4 +0.6 94 -1 -1 1010.0 975.6 +4.4 0.6
12 17.05 ЮЗ 2
{4}
50 км {снег, дождь} 10/9 1000 м
[Sc Ac As]
+0.6 +0.1 96 -3 -3 1010.6 976.1
15 17.05 З 4
{8}
10 км слаб. снег 10/8 1000 м
[Sc As op]
-0.8 -3.3 83 -6 -6 1011.9 977.1
18 17.05 З 3
{8}
10 км слаб. снег 10/3 1000 м
[Sc As op]
-2.3 -4.8 83 -7 -7 1013.6 978.6
21 17.05 З 3
{7}
50 км {снег} 10/8 1000 м
[Sc Ac As]
-2.6 -4.9 84 -8 -7 1014.9 979.8 -2.8 0.4 0
00 18.05 З 3
{7}
50 км {снег} 10/8 1000 м
[Sc Ac As]
-2.3 -5.2 80 -7 -7 1015.6 980.5 -2.9
03 18.05 З 3
{5}
10 км слаб. снег 10/8 1000 м
[Sc As op]
-1.6 -5.3 76 -6 -6 1016.2 981.2
06 18.05 З 4
{6}
10 км слаб. снег 10/5 1000 м
[Sc As op]
-1.3 -5.3 74 -7 -7 1016.5 981.5
09 18.05 СЗ 2
{6}
2000 м ливневой снег 10/8 1000 м
[Cb cap Ac As]
-2.5 -4.7 85 -6 -6 1016.9 981.8 -1.1 1
12 18.05 С 2
{5}
2000 м ливневой снег 10/8 1000 м
[Cb cap Ac As]
-4.3 -6.2 87 -9 -9 1018.2 982.7
15 18.05 С 1
{3}
2000 м ливневой снег 10/8 1000 м
[Cb cap Ac As]
-5.5 -7.3 87 -8 -8 1018.9 983.3
18 18.05 Ю 2
{3}
10 км слаб. ливневой снег 10/8 1000 м
[Cb cap Ac As]
-5.5 -8.1 82 -10 -10 1019.3 983.7
21 18.05 Ю 2
{3}
10 км слаб. ливневой снег 10/8 600 м
[Cb cap Ac trans]
-4.2 -8.4 72 -8 -8 1019.1 983.6 -5.6 4 5
00 19.05 ЮЗ 1
{4}
50 км {ливн. осадки} 8/8 600 м
[Cb cap]
-2.0 -8.2 63 -4 -1 1018.2 983.0
03 19.05 В 3
{5}
50 км 10/10 600 м
[Cb cap]
-1.7 -8.2 61 -6 -6 1016.8 981.8
06 19.05 СВ 4
{6}
50 км 9/9 600 м
[Cb cap]
-1.2 -7.5 62 -6 -6 1015.7 980.7
09 19.05 СВ 5
{8}
50 км 3/0
[Ci fib]
-3.5 -8.3 69 -10 -10 1014.9 979.7 -0.9 0.0
12 19.05 СВ 6-10
{10}
50 км 6/0
[Ac lent Ci fib]
-6.6 -10.7 73 -15 -15 1014.7 979.2

 

Местоположение метеостанции Билибино (Чукотка, Россия): широта 68.05 долгота 166.40 высота над уровнем моря 280 м.

В архиве по умолчанию представлена погода в Билибино за последнюю неделю. Архивные данные за месяц целиком и за предыдущие месяцы, начиная с января 2011 года, Вы можете получить, выбрав интересующий диапазон дат из раскрывающегося списка и нажав кнопку "Ввод!".


*Определитесь, кто Вы:
робот инопланетянин человек

Внимание! Время в таблицах - всемирное. Для получения местного времени необходимо прибавить поправку, которая равна 12 ч.

Смотрите также архив погоды в соседних городах и на ближайших метеорологических станциях:

Погода в Островном (Чукотка, Россия) (96 км)
Погода в Илирнее (Чукотка, Россия) (109 км)
Погода в Раучуе (Чукотка, Россия) (161 км)
Погода в Баимке (Чукотка, Россия) (194 км)
Погода в Чауне (Чукотка, Россия) (198 км)
Погода в Анюйске (Чукотка, Россия) (205 км)
Погода на Айон Острове (Чукотка, Россия) (217 км)
Погода в Константиновской (Чукотка, Россия) (220 км)
Погода в Черском (Якутия, Россия) (222 км)
Погода в Певеке (Чукотка, Россия) (238 км)

Пояснения к столбцам:

Ветер - указаны скорость ветра в м/с - средняя за 10 мин, порывы в срок и между сроками (в фигурных скобках) и направление, откуда дует ветер: С - северный, СВ - северо-восточный, В - восточный, ЮВ - юго-восточный, Ю - южный, ЮЗ - юго-западный, З - западный, СЗ - северо-западный.
Видимость - горизонтальная дальность видимости в метрах или километрах. При видимости от 1 до 10 км при отсутствии осадков обычно наблюдается дымка, при ухудшении видимости до 1 км и менее - туман. В сухую погоду видимость может ухудшаться дымом, пылью или мглою.
Явления - указаны атмосферные явления, наблюдавшиеся в срок или в последний час перед сроком; фигурными скобками обозначены явления, наблюдавшиеся между сроками (за 1-3 часа до срока); квадратными скобками обозначены град или гололедные отложения с указанием их диаметра в мм.
Облачность - указаны через наклонную черту общая и нижняя облачность в баллах и высота нижней границы облаков в метрах; квадратными скобками обозначены формы облаков: Ci - перистые, Cs - перисто-слоистые, Cc - перисто-кучевые, Ac - высококучевые, As - высокослоистые, Sc - слоисто-кучевые, Ns - слоисто-дождевые, Cu - кучевые, Cb - кучево-дождевые. Подробнее классификацию облаков см. в Атласе облаков (PDF).
T - Температура воздуха - температура, измеренная на высоте 2 м над землей.
Td - Температура точки росы - температура, при понижении до которой содержащийся в воздухе водяной пар достигнет насыщения.
f - Относительная влажность воздуха - влажноcть воздуха, измеренная на высоте 2 м над землей.
Te - Эффективная температура - температура, которую ощущает одетый по сезону человек в тени. Характеристика душности погоды. При расчете учитывается влияние влажности воздуха и скорости ветра на теплоощущения человека.
Tes - Эффективная температура на солнце - температура, которую ощущает человек, с поправкой на солнечный нагрев. Характеристика знойности погоды. Зависит от высоты солнца над горизонтом, облачности и скорости ветра. Ночью, в пасмурную погоду, а также при ветре 12 м/с и более поправка равна нулю.
P - Атмосферное давление - приведенное к уровню моря атмосферное давление.
Po - Атмосферное давление - измеренное на уровне метеостанции атмосферное давление.
Tmin - Минимальная температура - минимум температуры воздуха на высоте 2 м над землей.
Tmax - Максимальная температура - максимум температуры воздуха на высоте 2 м над землей.
R - Количество осадков - Количество выпавших осадков за период времени, мм. При наведении курсора мыши на число - период времени, за который выпало указанное количество осадков.
R24 - Количество осадков - Количество выпавших осадков за 24 часа, мм.
S - Снежный покров - Высота снежного покрова, см. При наведении курсора мыши на число - состояние снежного покрова и степень покрытия местности в баллах.